Location: Bad Salzschlirf
(50.3750°N, 9.3000°E)
Time: 06:03:48
(UTC+01:00)

ISS - Pass Details

Date: 14 November 2018
Orbit: 402 x 408 km, 51.6° (Epoch: 16 November)

Event Time Altitude Azimuth Distance (km) Brightness Sun altitude
Exits shadow 05:45:03 14° 203° (SSW) 1,252 -1.5 -17.4°
Drops below altitude 10° 05:46:08 10° 184° (S) 1,456 -1.0 -17.2°
Sets 05:48:50 0° 160° (SSE) 2,313 0.4 -16.8°
